千帆星座-14 (QIANFAN-14)

Basic Information
目录编号:
60392
目录名称:
QIANFAN-14
国际标识:
2024-140P
轨道中心:
EARTH
卫星名称:
千帆星座-14 (QIANFAN-14)
卫星全名:
千帆星座-14 (QIANFAN-14)
卫星状态:
在轨 (已飞行585 天)
发射日期:
2024-08-06 UTC
国别 :
中国 (CN)
星等 :
--
Orbit Information
数据来源 国际轨道数据 AOE轨道数据
星历时间 2026-03-14T05:56:48+0800
13小时前
查看轨道信息
2026-03-14T09:00:00+0800
10小时前
查看轨道信息
半长轴 7446.711km 7446.687km
偏心率 0.0015322 0.001472
轨道倾角 88.968° 88.967°
近地点辐角 309.502° 306.872°
升交点赤经 289.855° 289.842°
平近点角 50.478° 311.533°
近地点 1057.164km 1057.588km
远地点 1079.984km 1079.512km
周期 106.588分钟 106.587分钟
每日圈数 13.510022 13.510086
Detailed Information
运营商:
上海垣信卫星科技有限公司
运营商所在国:
中国
使用方式:
暂无
Satellite Introduction
千帆星座,也被称为“G60星链”计划,是中国版“星链”的重要组成部分,旨在打造一个由1.4万多颗低轨宽频多媒体卫星构成的庞大星座。千帆星座计划由上海垣信卫星科技有限公司负责实施,于2023年启动建设。该项目是我国第二个低轨卫星大星座,旨在通过构建庞大的卫星网络,为全球用户提供高质量的通信和宽带互联网服务。
2D Orbit Map
3D Orbit Map
Orbit Altitude Analysis Chart
Orbit Inclination Analysis Chart
Orbit Comprehensive Analysis Chart
View Comprehensive Chart